Regional Weather Roundup
Issued by NWS

Home | Current Version | Previous Version | Graphics & Text | Print | Product List | Glossary On
Versions: 1 2 3 4 5 6 7 8 9 10 11 12 13 14 15 16 17 18 19 20 21 22 23 24 25 26 27 28 29 30 31 32 33 34 35 36 37 38 39 40 41 42 43 44 45 46 47 48 49 50
000
ASUS43 KDTX 182010
RWRMI
MICHIGAN HOURLY REGIONAL WEATHER ROUNDUP
NATIONAL WEATHER SERVICE DETROIT/PONTIAC MI
400 PM EDT SAT APR 18 2015

NOTE: "FAIR" INDICATES FEW OR NO CLOUDS BELOW 12,000 FEET WITH NO
SIGNIFICANT WEATHER AND/OR OBSTRUCTION TO VISIBILITY.

MIZ047>049-052>055-059>063-066>070-074>076-081>083-182100-
SOUTHEAST LOWER MICHIGAN

CITY           SKY/WX    TMP DP  RH WIND       PRES   REMARKS
ADRIAN         PTSUNNY   71  44  37 SE16      30.07R
ALMA           SUNNY     64  31  29 E18G28    30.15S
ANN ARBOR      MOSUNNY   72  37  28 E13       30.08R
BAD AXE        SUNNY     53  32  44 NE12G17   30.20S
DETROIT CITY   SUNNY     64  35  34 E15G22    30.12R
DETROIT        PTSUNNY   71  33  24 NE12G20   30.10R
FLINT          SUNNY     68  29  23 NE14G22   30.13R
GROSSE ILE     MOSUNNY   64  32  29 NE14      30.09S
HILLSDALE      PTSUNNY   76  40  27 E7        30.05S
HOWELL         SUNNY     68  26  20 N10G16    30.10S

CITY           SKY/WX    TMP DP  RH WIND       PRES   REMARKS
JACKSON        MOSUNNY   74  34  23 NE14G20   30.06F
LAMBERTVILLE   PTSUNNY   64  36  34 E14G24    30.09F
LANSING        SUNNY     67  28  23 NE15G23   30.12S
LAPEER         FAIR      61  27  27 NE8G17    30.15S
MASON          SUNNY     69  33  26 NE14      30.10S
MONROE         MOSUNNY   68  36  30 E16       30.08S
PONTIAC        MOSUNNY   66  27  23 NE15      30.12R
PORT HOPE        N/A     47  37  68 NW8       30.20R
PORT HURON     SUNNY     59  32  36 N14       30.15S
TRI CITIES     MOSUNNY   59  28  30 E20       30.18R
TROY           SUNNY     66  29  25 NE10G22   30.14R
SAGINAW HB     MOSUNNY   59  32  36 NE13      30.17R
$$
MIZ043>046-050>051-056>058-064>065-071>073-077>080-182100-
SOUTHWEST LOWER MICHIGAN

CITY           SKY/WX    TMP DP  RH WIND       PRES   REMARKS
BATTLE CREEK   MOSUNNY   74  36  25 E15G21    30.06F
BENTON HARBOR  PTSUNNY   59  38  45 N7        30.03F
BIG RAPIDS     MOSUNNY   69  18  14 SE10G17   30.10S
COLDWATER      PTSUNNY   75  42  30 E6        30.03F
FREMONT        FAIR      72  17  12 E6        30.07F
HOLLAND        MOSUNNY   76  37  24 E13       30.06F
GRAND RAPIDS   MOSUNNY   71  37  28 E17       30.08F
IONIA          FAIR      68  31  25 E16       30.10F
KALAMAZOO      FAIR      77  38  24 NE9G16    30.04F
LUDINGTON      MOSUNNY   68  33  27 N12       30.09F
MARSHALL       MOSUNNY   73  36  25 N7        30.06S
MOUNT PLEASANT MOSUNNY   65  31  28 E15       30.14S
MUSKEGON       MOSUNNY   75  28  17 E7G20     30.06F
SOUTH HAVEN    MOSUNNY   77  33  19 NE3       30.02F
$$
MIZ016>042-182100-
NORTHERN LOWER MICHIGAN

CITY           SKY/WX    TMP DP  RH WIND       PRES   REMARKS
ALPENA         SUNNY     58  27  30 VRB7      30.20S
BEAVER ISLAND  SUNNY     58  23  26 NE9       30.20F
BELLAIRE       SUNNY     65  22  19 S6        30.15S
CADILLAC       MOSUNNY   65  20  17 NE9G16    30.11F
CHARLEVOIX     SUNNY     50  32  51 N12       30.22S
FRANKFORT      MOSUNNY   57  31  36 N12       30.14F
GAYLORD        SUNNY     60  14  16 VRB7      30.16S
GRAYLING       SUNNY     64  18  16 E6        30.16S
HARBOR SPRINGS SUNNY     61  22  22 E9        30.18S
HOUGHTON LAKE  SUNNY     67  13  12 NE10      30.14S
MANISTEE       MOSUNNY   59  36  41 NW12      30.10F
OSCODA         SUNNY     56  30  36 NE12      30.19S
PELLSTON       SUNNY     61  24  24 NE13      30.19S
ROGERS CITY    SUNNY     52  31  45 N3        30.22R
TRAVERSE CITY  MOSUNNY   54  34  46 NE13      30.15F
$$
MIZ007>008-015-182100-
EASTERN UPPER MICHIGAN

CITY           SKY/WX    TMP DP  RH WIND       PRES   REMARKS
KINROSS        SUNNY     55  27  33 N9        30.19S
MACKINAC ISLAN SUNNY     57  26  31 SE6       30.19S
NEWBERRY       SUNNY     55  32  42 NW5G18    30.20S
S. S. MARIE    SUNNY     55  31  39 W10       30.19S
MUNISING         N/A     41  30  65 N8        30.26S
$$
MIZ004>006-011>014-085-182100-
CENTRAL UPPER MICHIGAN

CITY           SKY/WX    TMP DP  RH WIND       PRES   REMARKS
MANISTIQUE     SUNNY     51  33  50 S7        30.20F
ESCANABA       SUNNY     52  34  50 S9        30.20S
MENOMINEE      MOSUNNY   52  32  46 E12       30.20F
SAWYER-GWINN   SUNNY     46  30  53 NE12      30.23F
$$
MIZ001>003-009>011-084-182100-
WESTERN UPPER MICHIGAN

CITY           SKY/WX    TMP DP  RH WIND       PRES   REMARKS
IRON MOUNTAIN  SUNNY     59  24  26 SE3       30.17F
HOUGHTON       SUNNY     48  28  46 E10       30.22F
COPPER HARBOR    N/A     40  31  70 E3        30.27F
IRONWOOD       SUNNY     61  25  25 E16       30.09F
$$

ABBREVIATIONS USED IN REMARKS
   TC - TEMPERATURE IN CELSIUS
  WCI - WIND CHILL INDEX
   HX - HEAT INDEX
  VSB - VISIBILITY




USA.gov is the U.S. government's official web portal to all federal, state and local government web resources and services.